| time (UTC) | temp C | wind direction | speed KPH | gust KPH | rain 1hr cm | rain 24hr cm | rain mn cm | humidity % | barometer mb |
| 20260904214020 | 23 | 335 | 3.2 | 11.3 | 0.00 | 0.71 | 0.71 | 67 | |
| 20260904213518 | 24 | 335 | 4.8 | 8.0 | 0.00 | 0.71 | 0.71 | 63 | |
| 20260904213015 | 24 | 312 | 3.2 | 4.8 | 0.00 | 0.71 | 0.71 | 61 | |
| 20260904212514 | 23 | 251 | 1.6 | 14.5 | 0.00 | 0.71 | 0.71 | 65 | |
| 20260904212009 | 23 | 269 | 0.0 | 6.4 | 0.00 | 0.71 | 0.71 | 64 | |
| 20260904211504 | 24 | 258 | 8.0 | 9.7 | 0.00 | 0.71 | 0.71 | 63 | |
| 20260904211000 | 25 | 262 | 3.2 | 3.2 | 0.00 | 0.71 | 0.71 | 61 | |
| 20260904210459 | 24 | 313 | 3.2 | 12.9 | 0.00 | 0.71 | 0.71 | 60 | |
| 20260904205955 | 25 | 256 | 3.2 | 8.0 | 0.00 | 0.71 | 0.71 | 61 | |
| 20260904205450 | 24 | 257 | 4.8 | 6.4 | 0.00 | 0.71 | 0.71 | 62 | |
| 20260904204947 | 24 | 259 | 3.2 | 8.0 | 0.00 | 0.71 | 0.71 | 61 | |
| 20260904204443 | 24 | 322 | 3.2 | 9.7 | 0.00 | 0.71 | 0.71 | 59 | |
| 20260904203938 | 25 | 260 | 8.0 | 16.1 | 0.00 | 0.71 | 0.71 | 57 | |
| 20260904203435 | 23 | 278 | 1.6 | 11.3 | 0.00 | 0.71 | 0.71 | 65 | |
| 20260904202930 | 24 | 345 | 3.2 | 4.8 | 0.00 | 0.71 | 0.71 | 64 | |
| 20260904202426 | 24 | 269 | 1.6 | 8.0 | 0.00 | 0.71 | 0.71 | 61 | |
| 20260904201922 | 24 | 327 | 4.8 | 8.0 | 0.00 | 0.71 | 0.71 | 61 | |
| 20260904201417 | 24 | 252 | 4.8 | 14.5 | 0.00 | 0.71 | 0.71 | 62 | |
| 20260904200912 | 25 | 265 | 1.6 | 6.4 | 0.00 | 0.71 | 0.71 | 60 | |
| 20260904200405 | 24 | 323 | 6.4 | 8.0 | 0.00 | 0.71 | 0.71 | 62 | |
| 20260904195900 | 25 | 279 | 4.8 | 8.0 | 0.00 | 0.71 | 0.71 | 61 | |
| 20260904195358 | 25 | 308 | 1.6 | 8.0 | 0.00 | 0.71 | 0.71 | 59 | |
| 20260904194853 | 23 | 267 | 4.8 | 12.9 | 0.00 | 0.71 | 0.71 | 61 | |
| 20260904194352 | 23 | 305 | 4.8 | 9.7 | 0.00 | 0.71 | 0.71 | 63 | |
| 20260904193848 | 23 | 310 | 3.2 | 8.0 | 0.00 | 0.71 | 0.71 | 63 | |
| 20260904193343 | 23 | 315 | 0.0 | 16.1 | 0.00 | 0.71 | 0.71 | 62 | |
| 20260904192838 | 23 | 304 | 1.6 | 8.0 | 0.00 | 0.71 | 0.71 | 64 | |
| 20260904192333 | 23 | 314 | 4.8 | 8.0 | 0.00 | 0.71 | 0.71 | 65 | |
| 20260904191830 | 24 | 274 | 1.6 | 6.4 | 0.00 | 0.71 | 0.71 | 63 | |
| 20260904191326 | 24 | 337 | 6.4 | 8.0 | 0.00 | 0.71 | 0.71 | 68 | |
| 20260904190823 | 24 | 258 | 0.0 | 8.0 | 0.00 | 0.71 | 0.71 | 63 | |
| 20260904190318 | 24 | 300 | 3.2 | 8.0 | 0.00 | 0.71 | 0.71 | 62 | |
| 20260904185814 | 25 | 325 | 4.8 | 6.4 | 0.00 | 0.71 | 0.71 | 62 | |
| 20260904185310 | 23 | 324 | 4.8 | 8.0 | 0.00 | 0.71 | 0.71 | 64 | |
| 20260904184809 | 23 | 310 | 6.4 | 8.0 | 0.00 | 0.71 | 0.71 | 65 | |
| 20260904184304 | 24 | 15 | 4.8 | 6.4 | 0.00 | 0.71 | 0.71 | 65 | |
| 20260904183759 | 23 | 327 | 4.8 | 11.3 | 0.00 | 0.71 | 0.71 | 64 | |
| 20260904183254 | 23 | 237 | 12.9 | 22.5 | 0.00 | 0.71 | 0.71 | 64 | |
| 20260904182749 | 23 | 17 | 1.6 | 8.0 | 0.00 | 0.71 | 0.71 | 68 | |
| 20260904182244 | 23 | 271 | 1.6 | 6.4 | 0.00 | 0.71 | 0.71 | 69 | |
| 20260904181740 | 23 | 311 | 4.8 | 6.4 | 0.00 | 0.71 | 0.71 | 66 | |
| 20260904181240 | 23 | 313 | 4.8 | 11.3 | 0.00 | 0.71 | 0.71 | 69 | |
| 20260904180735 | 23 | 232 | 9.7 | 11.3 | 0.00 | 0.71 | 0.71 | 66 | |
| 20260904180230 | 22 | 249 | 3.2 | 6.4 | 0.00 | 0.71 | 0.71 | 73 | |
| 20260904175729 | 22 | 239 | 4.8 | 8.0 | 0.00 | 0.71 | 0.71 | 74 | |
| 20260904175228 | 22 | 290 | 0.0 | 6.4 | 0.00 | 0.71 | 0.71 | 73 | |
| 20260904174723 | 22 | 273 | 1.6 | 11.3 | 0.00 | 0.71 | 0.71 | 72 | |
| 20260904174219 | 22 | 322 | 4.8 | 6.4 | 0.00 | 0.71 | 0.71 | 70 | |
| 20260904173714 | 22 | 312 | 1.6 | 4.8 | 0.00 | 0.71 | 0.71 | 71 | |
| 20260904173209 | 23 | 333 | 3.2 | 6.4 | 0.00 | 0.71 | 0.71 | 69 | |
| 20260904172706 | 23 | 267 | 1.6 | 6.4 | 0.00 | 0.71 | 0.71 | 71 | |
| 20260904172204 | 22 | 263 | 3.2 | 8.0 | 0.00 | 0.71 | 0.71 | 69 | |
| 20260904171700 | 23 | 245 | 4.8 | 9.7 | 0.00 | 0.71 | 0.71 | 71 | |
| 20260904171154 | 23 | 334 | 4.8 | 17.7 | 0.00 | 0.71 | 0.71 | 69 | |
| 20260904170651 | 23 | 272 | 3.2 | 8.0 | 0.00 | 0.71 | 0.71 | 70 | |
| 20260904170147 | 22 | 310 | 4.8 | 12.9 | 0.00 | 0.71 | 0.71 | 71 | |
| 20260904165645 | 22 | 285 | 4.8 | 11.3 | 0.00 | 0.71 | 0.71 | 72 | |
| 20260904165144 | 22 | 5 | 1.6 | 11.3 | 0.00 | 0.71 | 0.71 | 73 | |
| 20260904164640 | 23 | 9 | 6.4 | 9.7 | 0.00 | 0.71 | 0.71 | 68 | |
| 20260904164135 | 22 | 325 | 6.4 | 16.1 | 0.00 | 0.71 | 0.71 | 73 | |
| 20260904163630 | 23 | 346 | 4.8 | 4.8 | 0.00 | 0.71 | 0.71 | 72 | |
| 20260904163120 | 22 | 333 | 4.8 | 4.8 | 0.00 | 0.71 | 0.71 | 75 | |
| 20260904162620 | 23 | 321 | 3.2 | 4.8 | 0.00 | 0.71 | 0.71 | 71 | |
| 20260904162115 | 23 | 340 | 3.2 | 6.4 | 0.00 | 0.71 | 0.71 | 70 | |
| 20260904161610 | 22 | 278 | 3.2 | 17.7 | 0.00 | 0.71 | 0.71 | 72 | |
| 20260904161105 | 23 | 266 | 4.8 | 6.4 | 0.00 | 0.71 | 0.71 | 72 | |
| 20260904160600 | 23 | 280 | 0.0 | 8.0 | 0.00 | 0.71 | 0.71 | 73 | |
| 20260904160057 | 22 | 286 | 4.8 | 6.4 | 0.00 | 0.71 | 0.71 | 76 | |
| 20260904155556 | 21 | 238 | 3.2 | 4.8 | 0.00 | 0.71 | 0.71 | 80 | |
| 20260904155050 | 21 | 244 | 3.2 | 3.2 | 0.00 | 0.71 | 0.71 | 80 | |
| 20260904154544 | 21 | 206 | 0.0 | 4.8 | 0.00 | 0.71 | 0.71 | 79 | |
| 20260904154039 | 21 | 341 | 4.8 | 8.0 | 0.00 | 0.71 | 0.71 | 78 | |
| 20260904153538 | 22 | 315 | 3.2 | 8.0 | 0.00 | 0.71 | 0.71 | 79 | |
| 20260904153035 | 22 | 336 | 3.2 | 6.4 | 0.00 | 0.71 | 0.71 | 78 | |
| 20260904152530 | 22 | 347 | 4.8 | 9.7 | 0.00 | 0.71 | 0.71 | 79 | |
| 20260904152026 | 21 | 252 | 6.4 | 8.0 | 0.00 | 0.71 | 0.71 | 79 | |
| 20260904151520 | 21 | 254 | 4.8 | 9.7 | 0.00 | 0.71 | 0.71 | 81 | |
| 20260904151015 | 20 | 346 | 4.8 | 4.8 | 0.00 | 0.71 | 0.71 | 84 | |
| 20260904150515 | 21 | 269 | 3.2 | 11.3 | 0.00 | 0.71 | 0.71 | 84 | |
| 20260904150009 | 20 | 246 | 6.4 | 9.7 | 0.00 | 0.71 | 0.71 | 84 | |
| 20260904145504 | 21 | 257 | 1.6 | 12.9 | 0.00 | 0.71 | 0.71 | 82 | |
| 20260904144959 | 21 | 226 | 3.2 | 8.0 | 0.00 | 0.71 | 0.71 | 81 | |
| 20260904144455 | 21 | 309 | 3.2 | 8.0 | 0.00 | 0.71 | 0.71 | 82 | |
| 20260904143950 | 21 | 304 | 1.6 | 4.8 | 0.00 | 0.71 | 0.71 | 84 | |
| 20260904143447 | 21 | 299 | 3.2 | 4.8 | 0.00 | 0.71 | 0.71 | 82 | |
| 20260904142943 | 21 | 329 | 1.6 | 8.0 | 0.00 | 0.71 | 0.71 | 83 | |
| 20260904142439 | 20 | 357 | 4.8 | 8.0 | 0.00 | 0.71 | 0.71 | 85 | |
| 20260904141938 | 20 | 354 | 4.8 | 6.4 | 0.00 | 0.71 | 0.71 | 84 | |
| 20260904141433 | 20 | 305 | 3.2 | 6.4 | 0.00 | 0.71 | 0.71 | 84 | |
| 20260904140925 | 21 | 350 | 6.4 | 8.0 | 0.00 | 0.71 | 0.71 | 83 | |
| 20260904140425 | 20 | 306 | 3.2 | 6.4 | 0.00 | 0.71 | 0.71 | 84 | |
| 20260904135924 | 20 | 311 | 1.6 | 12.9 | 0.00 | 0.71 | 0.71 | 86 | |
| 20260904135423 | 20 | 323 | 3.2 | 4.8 | 0.00 | 0.71 | 0.71 | 85 | |
| 20260904134920 | 20 | 230 | 6.4 | 9.7 | 0.00 | 0.71 | 0.71 | 85 | |
| 20260904134420 | 20 | 325 | 3.2 | 6.4 | 0.00 | 0.71 | 0.71 | 87 | |
| 20260904133914 | 20 | 258 | 0.0 | 4.8 | 0.00 | 0.71 | 0.71 | 88 | |
| 20260904133414 | 20 | 349 | 3.2 | 4.8 | 0.00 | 0.71 | 0.71 | 87 | |
| 20260904132910 | 19 | 342 | 8.0 | 11.3 | 0.00 | 0.71 | 0.71 | 91 | |
| 20260904132405 | 18 | 35 | 1.6 | 6.4 | 0.00 | 0.71 | 0.71 | 93 | |
| 20260904131904 | 18 | 338 | 1.6 | 4.8 | 0.00 | 0.71 | 0.71 | 95 | |
| 20260904131359 | 18 | 0 | 1.6 | 3.2 | 0.00 | 0.71 | 0.71 | 96 | |
| 20260904130855 | 17 | 222 | 3.2 | 4.8 | 0.00 | 0.71 | 0.71 | 96 | |
| 20260904130354 | 17 | 233 | 0.0 | 8.0 | 0.00 | 0.71 | 0.71 | 96 | |
| 20260904125849 | 17 | 293 | 0.0 | 6.4 | 0.00 | 0.71 | 0.71 | 96 | |
| 20260904125346 | 17 | 262 | 6.4 | 9.7 | 0.00 | 0.71 | 0.71 | 96 | |
| 20260904124845 | 17 | 258 | 4.8 | 8.0 | 0.00 | 0.71 | 0.71 | 96 | |
| 20260904124342 | 17 | 347 | 0.0 | 6.4 | 0.00 | 0.71 | 0.71 | 96 | |
| 20260904123836 | 17 | 298 | 0.0 | 8.0 | 0.00 | 0.71 | 0.71 | 96 | |
| 20260904123331 | 17 | 60 | 4.8 | 6.4 | 0.00 | 0.71 | 0.71 | 96 | |
| 20260904122826 | 17 | 34 | 0.0 | 3.2 | 0.00 | 0.71 | 0.71 | 96 | |
| 20260904122321 | 17 | 252 | 0.0 | 3.2 | 0.00 | 0.71 | 0.71 | 96 | |
| 20260904121816 | 17 | 276 | 0.0 | 4.8 | 0.00 | 0.71 | 0.71 | 96 | |
| 20260904121312 | 17 | 309 | 3.2 | 4.8 | 0.00 | 0.71 | 0.71 | 96 | |
| 20260904120809 | 17 | 217 | 0.0 | 4.8 | 0.00 | 0.71 | 0.71 | 96 | |
| 20260904120304 | 17 | 112 | 0.0 | 1.6 | 0.00 | 0.71 | 0.71 | 96 | |
| 20260904115759 | 17 | 69 | 0.0 | 3.2 | 0.00 | 0.71 | 0.71 | 96 | |
| 20260904115254 | 17 | 142 | 0.0 | 1.6 | 0.00 | 0.71 | 0.71 | 96 | |
| 20260904114749 | 17 | 336 | 0.0 | 3.2 | 0.00 | 0.71 | 0.71 | 96 | |
| 20260904114248 | 17 | 113 | 0.0 | 3.2 | 0.00 | 0.71 | 0.71 | 96 | |
| 20260904113744 | 17 | 50 | 0.0 | 3.2 | 0.00 | 0.71 | 0.71 | 96 | |
| 20260904113243 | 17 | 50 | 0.0 | 3.2 | 0.00 | 0.71 | 0.71 | 96 | |
| 20260904112738 | 17 | 205 | 1.6 | 4.8 | 0.00 | 0.71 | 0.71 | 96 | |
| 20260904112233 | 17 | 192 | 0.0 | 3.2 | 0.00 | 0.71 | 0.71 | 96 | |
| 20260904111729 | 17 | 283 | 0.0 | 1.6 | 0.00 | 0.71 | 0.71 | 96 | |
| 20260904111225 | 17 | 129 | 0.0 | 4.8 | 0.00 | 0.71 | 0.71 | 96 | |
| 20260904110720 | 17 | 173 | 0.0 | 1.6 | 0.00 | 0.71 | 0.71 | 96 | |
| 20260904110219 | 17 | 55 | 0.0 | 1.6 | 0.00 | 0.71 | 0.71 | 96 | |
| 20260904105714 | 17 | 300 | 0.0 | 3.2 | 0.00 | 0.71 | 0.71 | 96 | |
| 20260904105209 | 17 | 211 | 0.0 | 3.2 | 0.00 | 0.71 | 0.71 | 96 | |
| 20260904104704 | 17 | 343 | 0.0 | 3.2 | 0.00 | 0.71 | 0.71 | 96 | |
| 20260904104200 | 17 | 282 | 3.2 | 6.4 | 0.00 | 0.71 | 0.71 | 96 | |
| 20260904103657 | 17 | 285 | 0.0 | 6.4 | 0.00 | 0.71 | 0.71 | 96 | |
| 20260904103151 | 17 | 273 | 3.2 | 4.8 | 0.00 | 0.71 | 0.71 | 96 | |
| 20260904102647 | 18 | 229 | 0.0 | 6.4 | 0.05 | 0.71 | 0.71 | 96 | |
| 20260904102142 | 18 | 246 | 0.0 | 4.8 | 0.05 | 0.71 | 0.71 | 96 | |
| 20260904101639 | 18 | 233 | 3.2 | 3.2 | 0.05 | 0.71 | 0.71 | 96 | |
| 20260904101134 | 18 | 223 | 3.2 | 3.2 | 0.00 | 0.69 | 0.69 | 96 | |
| 20260904100630 | 18 | 230 | 0.0 | 3.2 | 0.00 | 0.69 | 0.69 | 96 | |
| 20260904100125 | 18 | 327 | 1.6 | 6.4 | 0.00 | 0.69 | 0.69 | 96 | |
| 20260904095620 | 18 | 281 | 0.0 | 4.8 | 0.00 | 0.69 | 0.69 | 96 | |
| 20260904095120 | 18 | 230 | 0.0 | 0.0 | 0.00 | 0.69 | 0.69 | 96 | |
| 20260904094614 | 18 | 243 | 0.0 | 3.2 | 0.00 | 0.69 | 0.69 | 96 | |
| 20260904094109 | 18 | 44 | 0.0 | 1.6 | 0.00 | 0.69 | 0.69 | 96 | |
| 20260904093607 | 18 | 246 | 0.0 | 1.6 | 0.00 | 0.69 | 0.69 | 96 | |
| 20260904093101 | 18 | 269 | 0.0 | 3.2 | 0.00 | 0.69 | 0.69 | 96 | |
| 20260904092557 | 18 | 246 | 1.6 | 3.2 | 0.00 | 0.69 | 0.69 | 96 | |
| 20260904092053 | 17 | 147 | 0.0 | 3.2 | 0.00 | 0.69 | 0.69 | 96 | |
| 20260904091549 | 17 | 152 | 0.0 | 1.6 | 0.00 | 0.69 | 0.69 | 96 | |
| 20260904091048 | 17 | 185 | 0.0 | 1.6 | 0.00 | 0.69 | 0.69 | 96 | |
| 20260904090544 | 17 | 89 | 0.0 | 0.0 | 0.00 | 0.69 | 0.69 | 96 | |
| 20260904090040 | 17 | 87 | 1.6 | 1.6 | 0.00 | 0.69 | 0.69 | 96 | |
| 20260904085539 | 17 | 79 | 0.0 | 3.2 | 0.00 | 0.69 | 0.69 | 96 | |
| 20260904085034 | 17 | 102 | 0.0 | 3.2 | 0.00 | 0.69 | 0.69 | 96 | |
| 20260904084530 | 17 | 230 | 0.0 | 0.0 | 0.00 | 0.69 | 0.69 | 96 | |
| 20260904084026 | 17 | 217 | 0.0 | 0.0 | 0.00 | 0.69 | 0.69 | 96 | |
| 20260904083522 | 18 | 216 | 0.0 | 1.6 | 0.00 | 0.69 | 0.69 | 96 | |
| 20260904083017 | 18 | 132 | 0.0 | 1.6 | 0.00 | 0.69 | 0.69 | 96 | |
| 20260904082512 | 18 | 142 | 0.0 | 0.0 | 0.00 | 0.69 | 0.69 | 96 | |
| 20260904082007 | 18 | 230 | 0.0 | 1.6 | 0.00 | 0.69 | 0.69 | 96 | |
| 20260904081503 | 18 | 129 | 0.0 | 1.6 | 0.00 | 0.69 | 0.69 | 96 | |
| 20260904080958 | 18 | 140 | 0.0 | 3.2 | 0.00 | 0.69 | 0.69 | 96 | |
| 20260904080454 | 18 | 106 | 0.0 | 1.6 | 0.00 | 0.69 | 0.69 | 96 | |
| 20260904075949 | 18 | 215 | 0.0 | 1.6 | 0.00 | 0.69 | 0.69 | 96 | |
| 20260904075445 | 18 | 217 | 0.0 | 1.6 | 0.00 | 0.69 | 0.69 | 96 | |
| 20260904074944 | 18 | 37 | 0.0 | 0.0 | 0.00 | 0.69 | 0.69 | 96 | |
| 20260904074439 | 18 | 37 | 0.0 | 0.0 | 0.00 | 0.69 | 0.69 | 96 | |
| 20260904073934 | 18 | 37 | 0.0 | 0.0 | 0.00 | 0.69 | 0.69 | 96 | |
| 20260904073430 | 18 | 129 | 0.0 | 0.0 | 0.00 | 0.69 | 0.69 | 96 | |
| 20260904072925 | 18 | 157 | 0.0 | 0.0 | 0.00 | 0.69 | 0.69 | 96 | |
| 20260904072421 | 18 | 212 | 0.0 | 3.2 | 0.00 | 0.69 | 0.69 | 96 | |
| 20260904071916 | 18 | 217 | 0.0 | 0.0 | 0.00 | 0.69 | 0.69 | 96 | |
| 20260904071411 | 18 | 230 | 0.0 | 1.6 | 0.00 | 0.69 | 0.69 | 96 | |
| 20260904070906 | 18 | 269 | 0.0 | 0.0 | 0.00 | 0.69 | 0.69 | 96 | |
| 20260904070405 | 18 | 269 | 0.0 | 3.2 | 0.00 | 0.69 | 0.69 | 96 | |
| 20260904065905 | 19 | 247 | 3.2 | 3.2 | 0.00 | 0.69 | 0.69 | 96 | |
| 20260904065401 | 19 | 13 | 0.0 | 0.0 | 0.00 | 0.69 | 0.69 | 96 | |
| 20260904064901 | 19 | 13 | 0.0 | 0.0 | 0.00 | 0.69 | 0.69 | 96 | |
| 20260904064357 | 19 | 13 | 0.0 | 0.0 | 0.00 | 0.69 | 0.69 | 96 | |
| 20260904063852 | 19 | 13 | 0.0 | 0.0 | 0.00 | 0.69 | 0.69 | 96 | |
| 20260904063349 | 19 | 13 | 0.0 | 0.0 | 0.00 | 0.69 | 0.69 | 96 | |
| 20260904062844 | 19 | 13 | 0.0 | 0.0 | 0.00 | 0.69 | 0.69 | 96 | |
| 20260904062340 | 19 | 13 | 0.0 | 1.6 | 0.00 | 0.69 | 0.69 | 96 | |
| 20260904061835 | 19 | 22 | 0.0 | 3.2 | 0.00 | 0.69 | 0.69 | 96 | |
| 20260904061331 | 19 | 352 | 0.0 | 0.0 | 0.00 | 0.69 | 0.69 | 96 | |
| 20260904060827 | 19 | 339 | 0.0 | 3.2 | 0.00 | 0.69 | 0.69 | 96 | |
| 20260904060324 | 19 | 20 | 1.6 | 3.2 | 0.00 | 0.69 | 0.69 | 96 | |
| 20260904055818 | 19 | 13 | 0.0 | 1.6 | 0.00 | 0.69 | 0.69 | 96 | |
| 20260904055313 | 19 | 218 | 0.0 | 0.0 | 0.00 | 0.69 | 0.69 | 96 | |
| 20260904054809 | 19 | 218 | 0.0 | 3.2 | 0.00 | 0.69 | 0.69 | 96 | |
| 20260904054305 | 19 | 303 | 0.0 | 3.2 | 0.00 | 0.69 | 0.69 | 96 | |
| 20260904053759 | 19 | 0 | 1.6 | 1.6 | 0.00 | 0.69 | 0.69 | 96 | |
| 20260904053254 | 20 | 244 | 0.0 | 4.8 | 0.00 | 0.69 | 0.69 | 96 | |
| 20260904052750 | 20 | 322 | 0.0 | 4.8 | 0.00 | 0.69 | 0.69 | 96 | |
| 20260904052246 | 20 | 307 | 3.2 | 4.8 | 0.00 | 0.69 | 0.69 | 96 | |
| 20260904051742 | 20 | 12 | 0.0 | 3.2 | 0.00 | 0.69 | 0.69 | 96 | |
| 20260904051237 | 20 | 336 | 0.0 | 3.2 | 0.00 | 0.69 | 0.69 | 96 | |
| 20260904050732 | 20 | 344 | 0.0 | 3.2 | 0.00 | 0.69 | 0.69 | 96 | |
| 20260904050229 | 20 | 309 | 0.0 | 1.6 | 0.00 | 0.69 | 0.69 | 96 | |
| 20260904045729 | 20 | 217 | 0.0 | 3.2 | 0.00 | 0.69 | 0.69 | 96 | |
| 20260904045224 | 20 | 330 | 3.2 | 3.2 | 0.00 | 0.69 | 0.69 | 96 | |
| 20260904044718 | 20 | 153 | 0.0 | 4.8 | 0.00 | 0.69 | 0.69 | 96 | |
| 20260904044215 | 20 | 345 | 4.8 | 6.4 | 0.13 | 0.69 | 0.69 | 96 | |
| 20260904043711 | 20 | 325 | 1.6 | 3.2 | 0.13 | 0.69 | 0.69 | 96 | |
| 20260904043207 | 20 | 353 | 3.2 | 4.8 | 0.13 | 0.66 | 0.66 | 96 | |
| 20260904042703 | 20 | 309 | 0.0 | 4.8 | 0.36 | 0.66 | 0.66 | 96 | |
| 20260904042159 | 20 | 292 | 1.6 | 6.4 | 1.75 | 0.66 | 0.66 | 96 | |
| 20260904041653 | 20 | 197 | 3.2 | 4.8 | 1.50 | 0.61 | 0.61 | 96 | |
| 20260904041149 | 20 | 119 | 0.0 | 1.6 | 1.50 | 0.38 | 0.38 | 96 | |
| 20260904040645 | 20 | 89 | 0.0 | 3.2 | 1.93 | 0.28 | 0.28 | 96 | |
| 20260904040141 | 20 | 299 | 0.0 | 9.7 | 0.53 | 0.86 | 0.86 | 96 | |
| 20260904035636 | 20 | 315 | 0.0 | 1.6 | 0.89 | 0.84 | 0.84 | 96 | |
| 20260904035136 | 20 | 97 | 1.6 | 3.2 | 0.71 | 0.76 | 0.76 | 96 | |
| 20260904034636 | 20 | 255 | 4.8 | 6.4 | 0.36 | 0.69 | 0.69 | 96 | |
| 20260904034131 | 20 | 142 | 0.0 | 0.0 | 0.43 | 0.66 | 0.66 | 96 | |
| 20260904033627 | 20 | 142 | 0.0 | 0.0 | 0.53 | 0.61 | 0.61 | 96 | |
| 20260904033125 | 20 | 142 | 0.0 | 0.0 | 0.89 | 0.58 | 0.58 | 96 | |
| 20260904032620 | 20 | 142 | 0.0 | 0.0 | 0.66 | 0.53 | 0.53 | 96 | |
| 20260904032119 | 20 | 0 | 0.0 | 0.0 | 0.05 | 0.43 | 0.43 | 96 | |
| 20260904031618 | 20 | 89 | 0.0 | 1.6 | 0.13 | 0.43 | 0.43 | 96 | |
| 20260904031114 | 20 | 137 | 0.0 | 1.6 | 0.05 | 0.41 | 0.41 | 96 | |
| 20260904030610 | 20 | 129 | 0.0 | 1.6 | 0.13 | 0.41 | 0.41 | 96 | |
| 20260904030105 | 20 | 150 | 0.0 | 0.0 | 0.05 | 0.38 | 0.38 | 96 | |
| 20260904025601 | 20 | 150 | 0.0 | 0.0 | 0.00 | 0.38 | 0.38 | 96 | |
| 20260904025056 | 20 | 139 | 0.0 | 1.6 | 0.00 | 0.38 | 0.38 | 96 | |
| 20260904024551 | 20 | 15 | 0.0 | 0.0 | 0.00 | 0.38 | 0.38 | 96 | |
| 20260904024047 | 20 | 15 | 0.0 | 0.0 | 0.00 | 0.38 | 0.38 | 96 | |
| 20260904023543 | 20 | 15 | 1.6 | 3.2 | 0.00 | 0.38 | 0.38 | 96 | |
| 20260904023038 | 20 | 342 | 0.0 | 3.2 | 0.00 | 0.38 | 0.38 | 96 | |
| 20260904022533 | 20 | 6 | 0.0 | 1.6 | 0.00 | 0.38 | 0.38 | 96 | |
| 20260904022030 | 20 | 142 | 0.0 | 0.0 | 0.00 | 0.38 | 0.38 | 96 | |
| 20260904021525 | 21 | 142 | 0.0 | 0.0 | 0.00 | 0.38 | 0.38 | 96 | |
| 20260904021020 | 21 | 130 | 0.0 | 3.2 | 0.00 | 0.38 | 0.38 | 96 | |
| 20260904020520 | 21 | 233 | 0.0 | 0.0 | 0.00 | 0.38 | 0.38 | 96 | |
| 20260904020015 | 21 | 233 | 0.0 | 0.0 | 0.00 | 0.38 | 0.38 | 96 | |
| 20260904015510 | 21 | 230 | 0.0 | 0.0 | 0.00 | 0.38 | 0.38 | 96 | |
| 20260904015009 | 21 | 180 | 0.0 | 1.6 | 0.00 | 0.38 | 0.38 | 96 | |
| 20260904014503 | 21 | 119 | 0.0 | 0.0 | 0.00 | 0.38 | 0.38 | 96 | |
| 20260904013959 | 21 | 119 | 0.0 | 0.0 | 0.00 | 0.38 | 0.38 | 96 | |
| 20260904013455 | 20 | 126 | 0.0 | 1.6 | 0.00 | 0.38 | 0.38 | 96 | |
| 20260904012951 | 20 | 46 | 0.0 | 1.6 | 0.00 | 0.38 | 0.38 | 96 | |
| 20260904012450 | 20 | 13 | 0.0 | 1.6 | 0.00 | 0.38 | 0.38 | 96 | |
| 20260904011945 | 21 | 142 | 0.0 | 0.0 | 0.00 | 0.38 | 0.38 | 96 | |
| 20260904011440 | 21 | 142 | 0.0 | 0.0 | 0.00 | 0.38 | 0.38 | 96 | |
| 20260904010935 | 21 | 142 | 0.0 | 1.6 | 0.00 | 0.38 | 0.38 | 96 | |
| 20260904010431 | 21 | 343 | 0.0 | 0.0 | 0.00 | 0.38 | 0.38 | 96 | |
| 20260904005925 | 21 | 343 | 0.0 | 0.0 | 0.00 | 0.38 | 0.38 | 96 | |
| 20260904005416 | 21 | 13 | 0.0 | 1.6 | 0.00 | 0.38 | 0.38 | 96 | |
| 20260904004915 | 21 | 142 | 0.0 | 0.0 | 0.00 | 0.38 | 0.38 | 96 | |
| 20260904004413 | 21 | 142 | 0.0 | 0.0 | 0.00 | 0.38 | 0.38 | 96 | |
| 20260904003912 | 21 | 140 | 1.6 | 3.2 | 0.00 | 0.38 | 0.38 | 96 | |
| 20260904003403 | 21 | 137 | 0.0 | 1.6 | 0.00 | 0.38 | 0.38 | 96 | |
| 20260904002857 | 21 | 130 | 0.0 | 1.6 | 0.00 | 0.38 | 0.38 | 96 | |
| 20260904002354 | 21 | 121 | 1.6 | 1.6 | 0.00 | 0.38 | 0.38 | 96 | |
| 20260904001853 | 21 | 117 | 0.0 | 1.6 | 0.00 | 0.38 | 0.38 | 96 | |
| 20260904001349 | 21 | 235 | 0.0 | 0.0 | 0.00 | 0.38 | 0.38 | 96 | |
| 20260904000843 | 21 | 235 | 0.0 | 0.0 | 0.00 | 0.38 | 0.38 | 96 | |
| 20260904000343 | 21 | 229 | 0.0 | 3.2 | 0.00 | 0.38 | 0.38 | 96 | |
| 20260903235842 | 22 | 296 | 0.0 | 1.6 | 0.00 | 0.38 | 0.38 | 96 | |
| 20260903235339 | 22 | 322 | 0.0 | 1.6 | 0.00 | 0.38 | 0.38 | 96 | |
| 20260903234838 | 22 | 142 | 0.0 | 0.0 | 0.00 | 0.38 | 0.38 | 96 | |
| 20260903234334 | 22 | 142 | 0.0 | 0.0 | 0.00 | 0.38 | 0.38 | 96 | |
| 20260903233831 | 22 | 142 | 0.0 | 0.0 | 0.00 | 0.38 | 0.38 | 96 | |
| 20260903233326 | 22 | 142 | 0.0 | 1.6 | 0.00 | 0.38 | 0.38 | 96 | |
| 20260903232825 | 22 | 129 | 0.0 | 0.0 | 0.00 | 0.38 | 0.38 | 95 | |
| 20260903232321 | 22 | 129 | 0.0 | 0.0 | 0.00 | 0.38 | 0.38 | 94 | |
| 20260903231820 | 23 | 142 | 0.0 | 0.0 | 0.00 | 0.38 | 0.38 | 94 | |
| 20260903231316 | 23 | 142 | 0.0 | 1.6 | 0.00 | 0.38 | 0.38 | 93 | |
| 20260903230811 | 23 | 148 | 1.6 | 3.2 | 0.00 | 0.38 | 0.38 | 93 | |
| 20260903230306 | 23 | 154 | 0.0 | 0.0 | 0.00 | 0.38 | 0.38 | 93 | |
| 20260903225802 | 23 | 217 | 0.0 | 0.0 | 0.00 | 0.38 | 0.38 | 92 | |
| 20260903225258 | 24 | 217 | 0.0 | 0.0 | 0.00 | 0.38 | 0.38 | 92 | |
| 20260903224754 | 24 | 217 | 0.0 | 0.0 | 0.00 | 0.38 | 0.38 | 90 | |
| 20260903224250 | 25 | 217 | 0.0 | 0.0 | 0.00 | 0.38 | 0.38 | 89 | |
| 20260903223745 | 25 | 217 | 0.0 | 1.6 | 0.00 | 0.38 | 0.38 | 89 | |
| 20260903223243 | 25 | 242 | 0.0 | 1.6 | 0.00 | 0.38 | 0.38 | 89 | |
| 20260903222739 | 25 | 339 | 0.0 | 1.6 | 0.00 | 0.38 | 0.38 | 88 | |
| 20260903222238 | 25 | 154 | 0.0 | 3.2 | 0.00 | 0.38 | 0.38 | 86 | |
| 20260903221733 | 25 | 228 | 0.0 | 0.0 | 0.00 | 0.38 | 0.38 | 85 | |
| 20260903221232 | 25 | 228 | 0.0 | 0.0 | 0.00 | 0.38 | 0.38 | 86 | |
| 20260903220730 | 26 | 228 | 0.0 | 0.0 | 0.00 | 0.38 | 0.38 | 83 | |
| 20260903220225 | 26 | 228 | 0.0 | 0.0 | 0.00 | 0.38 | 0.38 | 82 | |
| 20260903215724 | 26 | 244 | 3.2 | 3.2 | 0.00 | 0.38 | 0.38 | 79 | |
| 20260903215220 | 26 | 229 | 0.0 | 1.6 | 0.00 | 0.38 | 0.38 | 81 | |
| 20260903214718 | 26 | 209 | 0.0 | 0.0 | 0.00 | 0.38 | 0.38 | 80 |